Terminal Aerodrome Forecast
Issued by NWS Blacksburg, VA

Home | Current Version | Previous Version | Text Only | Print | Product List | Glossary On
Versions: 1 2 3 4 5 6 7 8 9 10 11 12 13 14 15 16 17 18 19 20 21 22 23 24 25 26 27 28 29 30 31 32 33 34 35 36 37 38 39 40 41 42 43 44 45 46 47 48 49 50
000
FTUS41 KRNK 042321
TAFROA
TAF
KROA 042321Z 0500/0524 10004KT P6SM VCSH SCT025 OVC035
      TEMPO 0500/0502 BKN025
     FM050200 VRB04KT 6SM -RA BKN020
     FM050400 32006KT 5SM -RA BR OVC015
     FM051100 33004KT 4SM -RAPL BR OVC007
     FM051400 01006KT 2SM -SNPL BR OVC004
     FM051900 33008KT 4SM -SN BR OVC008=

USA.gov is the U.S. government's official web portal to all federal, state and local government web resources and services.